THOR ABLESTAR DEB, 649

Orbit data source: Space-Track

THOR ABLESTAR DEB, 649 is space debris in LEO originally from a launch on Thu, 29 Jun 1961 UTC launched from the Air Force Eastern Test Range (AFETR). Debris objects in space refer to the collection of defunct objects orbiting the Earth. Examples of debris include non-operational satellites, rocket bodies, and fragments generated from explosions, collisions, or faulty payload assembly.

Loading next visibility...
Identifier
649, 1961-015HA
Orbit
LEO
Country
Flag of USUS
Related business
Manufacturer
Unknown
Mission
Spacecraft
Bus & Motor
Unknown
Mass
Unknown
Launch date (UTC)
1961-06-29 (65 years ago)
Launch vehicle
Unknown
Launch site
Air Force Eastern Test Range (AFETR)
Object type
Payload
Rocket body
Debris
Shape & HBR
Unknown shape, 0.1 m
Radar Cross Section
Small (<0.1 m²)

Expand to show TLE details & history
Last TLE update: 8 hours ago

TLE from 8 hours ago
0 THOR ABLESTAR DEB
1 00649U 61015HA  26071.28781234  .00000509  00000-0  16697-2 0  9998
2 00649  66.2700   5.7568 0552159  89.7034  71.1035 12.65298644980372
Epoch: 2026-03-12T06:54Z
TLE epoch observation values (Epoch: 2026-03-12T06:54:26.986Z)
Latitude
11.93317°
Longitude
-93.09925°
Altitude
1,284.964 km
Speed
7.269 km/s
True Right ascension
12h 01m 48s
True Declination
11° 52' 07"
Sunlit
Object was in full shadow at epoch
Visualization orbit readout
Latitude
Unknown
Longitude
Unknown
Altitude
Unknown
Speed
Unknown
Apparent Right ascension
Unknown
Apparent Declination
Unknown
Sunlit
N/A
Visualization observer readout
Local Sidereal Time
19:01:52
Azimuth
Unknown
Elevation
Unknown
Doppler factor
Unknown
Orbital elements
Apogee altitude
1,829.153 km
Perigee altitude
970.233 km
Semi-major axis
7,777.83 km
Eccentricity
0.05522
Inclination
66.27°
RAAN
5.7568°
Arg. of periapsis
89.7034°
True anomaly
77.21487°
Mean anomaly
71.1035°
Eccentric anomaly
74.14681°
Mean motion
3.16414 °/min
Orbital period
113.78 mins
BSTAR
0.0016697

Documentation

Showing up to 5 results
|